Location: Hamilton
(37.7830°S, 175.2830°E)
Time: 04:45:29
(UTC+13:00)

NOSS 2-1 (E) - Visible Passes

Search period start: 15 December 2019 00:00
Search period end: 25 December 2019 00:00
Orbit: 457 x 1747 km, 63.3° (Epoch: 04 December)

Date Brightness Start Highest point End Pass type
(mag) Time Alt. Az. Time Alt. Az. Time Alt. Az.
21 Dec 7.7 05:01:07 10° NE 05:06:56 17° E 05:12:51 10° ESE visible
23 Dec 7.2 05:16:15 10° NNE 05:24:58 34° ENE 05:33:55 10° SE visible
24 Dec 7.5 04:32:20 10° NNE 04:39:24 22° ENE 04:46:37 10° ESE visible
